This is the latest recevied weather packets stored in our database for station/object WV5G-13. If no packets are shown the sender has not sent any weather packets the latest 10 day(s).
| Time | Temp. | Humidity | Pressure | Rain* | Wind** | Luminosity | Snow |
|---|---|---|---|---|---|---|---|
| 1777770003 | 22.78° C | 19% | 1016.4 hPa | 0 mm | - | 34 W/m² | - |
| 1777769700 | 22.22° C | 19% | 1016.4 hPa | 0 mm | - | 40 W/m² | - |
| 1777769397 | 22.22° C | 19% | 1016.2 hPa | 0 mm | - | 46 W/m² | - |
| 1777769093 | 22.78° C | 19% | 1016.6 hPa | 0 mm | - | 54 W/m² | - |
| 1777768791 | 22.22° C | 19% | 1016.5 hPa | 0 mm | - | 64 W/m² | - |
| 1777768487 | 21.11° C | 20% | 1016.4 hPa | 0 mm | - | 75 W/m² | - |
| 1777768184 | 20.56° C | 21% | 1016.4 hPa | 0 mm | - | 44 W/m² | - |
| 1777767882 | 21.11° C | 20% | 1016.2 hPa | 0 mm | - | 45 W/m² | - |
| 1777767578 | 21.11° C | 20% | 1016.4 hPa | 0 mm | - | 52 W/m² | - |
| 1777767275 | 21.67° C | 19% | 1016.2 hPa | 0 mm | - | 51 W/m² | - |
| 1777766973 | 23.33° C | 18% | 1016.5 hPa | 0 mm | - | 55 W/m² | - |
| 1777766669 | 23.33° C | 17% | 1016.2 hPa | 0 mm | - | 101 W/m² | - |
| 1777766367 | 23.89° C | 17% | 1016.5 hPa | 0 mm | - | 168 W/m² | - |
| 1777766063 | 23.33° C | 17% | 1016.4 hPa | 0 mm | - | 185 W/m² | - |
| 1777765761 | 22.78° C | 18% | 1016.4 hPa | 0 mm | - | 198 W/m² | - |
| 1777765457 | 22.78° C | 18% | 1016.5 hPa | 0 mm | - | 207 W/m² | - |
| 1777765154 | 22.78° C | 17% | 1016.5 hPa | 0 mm | - | 228 W/m² | - |
| 1777764849 | 23.33° C | 19% | 1016.6 hPa | 0 mm | - | 250 W/m² | - |
| 1777764547 | 22.78° C | 19% | 1016.5 hPa | 0 mm | - | 272 W/m² | - |
| 1777764243 | 23.89° C | 19% | 1016.7 hPa | 0 mm | - | 289 W/m² | - |
| 1777763940 | 23.33° C | 17% | 1016.4 hPa | 0 mm | - | 300 W/m² | - |
| 1777763638 | 22.78° C | 17% | 1016.5 hPa | 0 mm | - | 317 W/m² | - |
| 1777763336 | 22.78° C | 17% | 1016.7 hPa | 0 mm | - | 341 W/m² | - |
| 1777763034 | 22.78° C | 19% | 1016.7 hPa | 0 mm | - | 366 W/m² | - |
| 1777762730 | 22.78° C | 18% | 1016.6 hPa | 0 mm | - | 388 W/m² | - |
* Rain latest hour (hover to see other rain measurements)
** Current wind speed in m/s (hover to see current wind gust speed)